Temperature
19 20 20 20 20 19 18 16 16 17 17 17 16 16 17 17 17 17 16 16 15 15 15 14 14 14 13 13 13 12 12 12 11 11 11 11 11 11 11 11 12 12 12 12
20 21 21 21 20 19 19 18 17 18 17 17 18 18 17 17 17 17 16 16 16 15 15 14 14 14 13 13 12 12 12 12 11 11 11 11 11 11 11 11 11 11 11 12
18 20 21 19 19 19 19 19 18 17 17 16 16 16 17 17 17 17 17 16 16 15 15 14 14 14 13 13 12 12 12 11 11 11 11 11 11 11 11 11 11 11 12 12
17 19 20 19 20 20 19 20 19 19 18 17 18 19 19 19 18 17 17 16 16 15 15 14 14 14 13 13 12 12 12 12 11 11 11 11 11 11 11 11 11 11 12 12
16 18 18 20 21 21 20 20 19 18 18 19 19 18 18 18 18 18 17 17 16 15 15 15 14 14 13 13 12 12 12 11 11 11 11 11 11 11 11 11 11 11 11 11
16 19 19 20 21 22 21 20 20 20 18 18 18 14 16 19 18 18 17 17 16 15 15 15 14 14 13 13 13 12 12 11 11 11 11 11 11 11 11 11 11 11 11 11
16 17 17 19 21 21 19 19 21 21 21 19 18 18 20 19 18 18 17 17 16 16 15 15 14 14 14 13 13 12 12 12 11 11 11 11 11 11 11 11 11 11 11 11
15 17 18 21 21 19 19 22 22 22 22 21 21 21 20 19 19 18 17 17 16 16 15 15 14 14 14 13 13 12 12 12 12 11 11 11 11 11 11 11 11 11 11 11
16 18 21 23 23 24 24 23 23 23 22 22 21 21 20 19 19 18 18 17 16 16 15 15 15 14 14 14 13 13 12 12 12 11 11 11 11 11 11 11 11 11 11 11
18 18 22 23 24 24 23 23 23 23 22 22 21 21 20 19 19 18 18 17 17 16 16 15 15 14 14 14 13 13 12 12 12 12 11 11 11 11 11 11 11 11 11 11
19 19 22 23 24 24 24 23 23 23 22 22 21 21 20 19 19 18 18 17 17 16 16 16 15 15 14 14 13 13 13 12 12 12 11 11 11 11 11 11 11 11 11 11
18 20 19 23 24 24 23 23 23 22 22 22 21 21 20 20 19 19 18 18 17 16 16 16 15 15 14 14 14 13 13 13 12 12 12 11 11 11 11 11 11 11 11 11
19 21 22 22 23 23 23 23 23 22 22 21 21 21 20 20 19 19 18 18 17 17 17 16 15 15 15 14 14 13 13 13 12 12 12 11 11 11 11 11 11 11 11 11
19 21 21 21 21 22 22 22 22 22 21 21 21 20 20 20 19 19 18 18 18 17 17 16 16 15 15 14 14 14 13 13 13 12 12 12 11 11 11 11 11 11 11 11
18 18 18 19 20 21 21 21 21 21 21 20 20 20 20 20 19 19 19 18 18 17 17 16 16 16 15 15 14 14 14 13 13 13 12 12 12 11 11 11 11 11 11 11
16 18 18 19 19 19 19 19 19 19 20 20 20 20 20 19 19 19 19 18 18 17 17 17 16 16 15 15 15 14 14 14 13 13 12 12 12 12 11 11 11 11 11 11
15 15 15 16 16 17 17 17 18 18 19 19 19 19 19 19 19 19 19 18 18 18 17 17 16 16 15 15 15 14 14 14 13 13 13 12 12 12 12 12 12 11 11 11
13 13 13 13 14 15 16 16 17 17 18 18 18 19 19 19 19 19 19 18 18 17 17 17 16 16 15 15 15 14 14 14 13 13 13 12 12 12 12 12 12 12 12 11
12 12 13 13 13 14 15 15 16 16 17 17 18 18 18 19 19 19 19 18 18 18 18 17 16 16 15 15 15 14 14 14 13 13 13 13 12 12 12 12 12 12 12 12
11 11 12 12 12 13 13 14 14 15 15 16 16 17 18 18 18 18 18 18 18 18 18 17 17 16 16 15 15 14 14 14 13 13 13 13 12 12 12 12 12 12 12 12
10 10 10 11 11 11 11 12 12 13 13 14 14 15 16 17 17 17 17 18 18 18 17 17 16 16 16 15 15 14 14 14 13 13 13 13 12 12 12 12 12 12 12 12
9 9 9 9 9 10 10 11 11 11 12 12 13 13 14 15 16 16 17 16 17 17 17 17 16 16 16 15 15 14 14 14 13 13 13 13 13 12 12 12 12 12 12 12
8 8 8 8 8 8 9 9 10 10 10 10 11 11 12 12 13 13 14 15 16 16 16 16 16 16 16 15 15 15 14 14 14 13 13 13 13 12 12 12 12 12 12 12
7 7 7 7 7 8 8 8 8 8 9 9 9 10 10 11 12 12 12 13 14 15 16 16 16 16 16 15 15 15 14 14 14 13 13 13 13 13 12 12 12 12 12 12
7 7 7 7 7 6 7 7 7 7 8 8 8 9 9 9 9 10 11 12 13 14 15 15 15 15 15 15 15 15 14 14 14 14 13 13 13 13 12 12 12 12 12 12
6 6 6 6 6 6 6 6 6 6 6 7 7 7 7 8 8 9 10 11 11 12 13 13 14 14 14 14 14 14 14 14 13 13 13 13 13 12 12 12 12 12 12 12
6 6 6 6 6 5 5 5 5 5 5 5 5 6 6 6 7 7 8 9 10 10 11 11 12 12 13 13 13 13 13 13 13 13 13 12 12 12 12 12 12 12 12 12
Wind_Speed
6 6 6 6 7 8 7 8 7 7 7 9 12 12 10 8 7 6 4 3 2 2 2 2 3 3 3 3 4 4 5 6 7 7 7 7 7 7 7 7 8 7 8 7
2 5 5 5 7 9 8 7 7 6 7 7 7 8 8 9 8 7 6 5 3 2 0 1 2 2 2 2 3 3 4 5 6 7 7 7 7 7 7 8 8 8 8 8
3 3 1 6 9 10 7 7 8 9 9 5 6 10 12 11 9 9 7 6 5 3 1 1 1 1 1 1 2 3 4 5 6 6 7 7 7 8 7 7 7 8 8 8
1 2 5 8 6 7 8 7 8 7 7 11 11 11 10 10 11 9 8 7 6 4 2 1 1 2 2 1 2 3 4 5 5 5 6 6 7 7 7 6 6 6 7 8
3 1 7 8 4 4 4 6 6 8 8 9 6 4 3 8 10 10 9 8 6 5 4 3 3 3 3 2 2 3 3 4 4 4 5 6 6 6 5 5 6 6 7 8
3 1 4 7 4 3 4 5 6 7 9 9 9 5 7 8 9 9 8 7 6 5 4 4 3 4 4 2 1 1 2 3 3 3 4 5 5 5 4 4 5 6 8 8
3 4 7 7 1 4 2 7 5 7 9 12 11 10 7 9 9 9 9 8 7 6 5 5 5 5 4 2 2 3 2 2 3 3 3 4 4 4 5 5 6 6 7 8
5 3 7 5 6 6 10 5 4 6 8 11 10 7 7 10 10 10 9 8 8 6 5 5 6 6 5 4 4 2 1 1 2 3 3 4 5 5 5 6 6 6 6 7
8 8 8 7 10 8 6 6 6 6 7 9 8 8 9 10 11 11 10 9 7 7 6 5 6 7 6 5 4 2 1 0 0 1 2 3 4 4 4 5 5 4 5 5
4 7 7 8 8 6 7 8 7 7 7 10 10 10 10 10 10 10 10 9 8 7 7 7 7 7 7 6 5 3 2 2 2 2 1 2 3 3 3 3 3 3 4 4
4 7 7 6 7 8 6 6 5 5 7 11 11 10 11 11 11 10 10 9 8 8 8 9 8 8 7 7 6 4 3 3 3 3 3 1 1 1 1 1 1 1 0 1
6 7 5 6 6 4 5 6 7 7 6 7 10 12 11 11 11 10 10 9 9 9 9 8 8 8 8 7 7 6 4 4 3 3 3 3 2 0 3 2 2 1 1 1
6 7 4 5 5 2 4 6 6 7 8 8 7 9 11 9 10 10 10 10 11 11 10 9 8 9 9 8 8 7 6 6 4 4 4 4 3 3 2 3 3 3 2 1
7 6 4 5 5 5 3 3 3 3 4 6 7 7 8 8 8 10 12 13 12 11 10 9 9 9 9 9 8 8 7 7 6 5 5 4 4 4 4 3 2 2 3 3
12 7 4 6 7 8 6 4 2 2 3 4 4 6 8 9 10 12 12 11 10 10 10 10 10 10 9 9 9 9 7 6 6 5 5 5 4 4 4 4 4 3 2 2
10 9 11 11 11 9 8 7 5 5 5 5 5 6 8 10 10 10 10 10 10 12 12 11 11 10 9 10 9 8 7 9 8 6 5 4 4 4 4 4 5 4 4 4
10 12 12 12 12 10 9 7 6 6 6 6 7 8 7 7 8 9 10 11 13 13 13 12 12 10 10 11 10 8 7 7 10 6 5 5 5 5 5 5 5 6 6 6
8 8 7 8 9 10 11 10 9 9 7 8 8 6 6 7 9 11 11 10 10 10 11 12 11 10 10 11 10 8 7 7 6 6 6 6 6 6 5 6 6 7 5 5
10 11 11 11 11 9 10 11 11 10 10 9 8 7 7 8 9 10 8 9 11 13 12 11 14 12 11 12 12 8 8 8 7 6 6 8 7 6 6 6 6 7 6 6
11 11 11 11 12 11 12 12 12 12 11 11 9 8 8 8 8 8 8 10 12 11 11 12 12 11 11 12 14 9 9 9 8 7 6 6 7 7 7 7 7 7 7 7
9 10 11 12 11 11 11 12 12 13 13 11 10 9 10 10 8 6 6 9 10 9 9 13 12 10 11 11 14 10 10 10 9 8 8 7 7 7 7 8 7 7 7 7
7 8 9 10 11 11 10 10 11 12 13 14 13 12 11 11 11 8 7 8 8 9 8 8 9 13 15 14 10 10 11 10 9 8 8 8 8 8 8 8 8 7 7 8
5 6 7 8 8 9 10 10 11 11 12 13 13 13 12 10 7 7 9 9 8 9 8 8 12 17 19 13 10 11 11 11 10 9 9 8 8 8 8 8 8 7 7 7
4 6 7 7 7 8 10 11 10 9 10 10 10 11 11 10 9 8 8 12 13 11 7 10 14 17 18 11 10 10 11 10 10 9 9 8 8 8 8 8 7 7 7 8
4 5 5 7 7 6 7 8 9 9 10 9 10 11 10 7 8 10 10 11 14 11 7 8 11 13 10 8 9 10 10 10 10 9 9 8 8 8 8 8 8 7 7 7
4 4 4 5 4 4 5 5 6 7 8 9 9 10 10 10 10 9 9 11 12 12 8 6 5 5 5 5 7 8 9 9 10 10 9 9 9 9 8 8 9 8 7 7
5 4 4 4 5 4 4 4 5 6 7 7 9 9 10 10 10 10 10 10 10 10 8 8 6 4 3 2 3 4 5 6 7 8 8 8 8 8 9 10 8 7 7 7
Wind_Direction
220 214 185 197 202 191 183 190 200 231 219 224 210 204 201 197 192 190 193 199 201 236 292 312 333 347 360 360 358 6 13 8 355 348 352 360 2 1 3 9 12 9 12 12
273 241 213 230 222 205 211 209 214 226 247 234 198 180 187 191 187 189 195 193 185 179 256 327 327 353 13 1 349 5 14 1 352 356 1 4 3 5 9 10 10 17 17 16
290 299 28 271 236 206 212 209 191 214 230 188 172 188 194 194 190 190 194 187 179 179 199 224 239 159 127 316 356 22 12 359 357 360 2 359 6 12 10 7 14 20 15 17
119 45 244 252 255 193 204 230 210 208 198 183 193 199 197 188 184 189 187 182 180 182 188 200 182 133 125 73 42 30 13 359 356 3 3 2 10 12 7 7 14 15 14 15
108 242 283 290 262 172 183 264 224 202 199 194 170 133 231 207 184 183 184 181 182 183 173 164 162 145 120 82 37 27 6 350 349 358 6 9 11 7 6 12 17 15 15 22
112 205 257 260 268 142 98 283 259 192 186 174 140 165 237 209 182 177 175 172 173 168 154 155 169 147 126 126 53 351 321 327 343 1 14 13 9 8 9 18 20 24 28 27
166 235 267 257 209 90 126 249 245 188 181 172 182 202 204 173 175 174 172 175 167 161 166 180 174 149 144 176 234 261 286 340 3 8 22 26 21 18 21 28 32 33 33 26
159 202 264 226 151 184 219 235 217 193 187 187 203 199 173 170 174 173 174 174 169 169 185 192 177 160 169 210 236 246 289 10 11 15 29 47 46 32 27 34 40 33 33 28
185 214 242 210 205 219 194 203 214 198 198 182 181 180 178 178 177 180 181 181 177 177 189 203 195 179 186 218 221 194 150 69 21 58 48 50 58 47 34 35 44 34 34 32
230 262 258 243 245 247 212 213 215 200 185 172 178 182 182 182 184 186 187 186 183 179 191 210 211 203 203 207 196 169 169 202 184 147 101 52 54 55 54 41 43 40 35 29
274 287 306 289 254 244 235 222 207 195 184 182 179 184 185 188 192 192 192 192 186 189 198 210 209 209 211 200 179 173 184 193 180 175 168 139 82 48 46 333 280 110 41 17
249 262 235 263 276 239 218 221 209 194 192 191 186 190 190 195 197 194 194 192 193 198 203 209 204 209 211 199 180 173 183 195 196 193 190 181 169 355 346 327 341 356 202 187
272 277 240 287 327 323 232 235 220 202 197 199 202 194 192 197 199 197 197 194 198 202 205 204 202 208 209 198 185 181 189 198 201 197 194 195 197 199 241 314 329 333 322 294
341 359 5 344 324 322 304 276 233 221 217 208 202 196 193 197 198 198 203 204 203 201 203 201 202 211 208 195 188 190 192 199 196 200 199 199 203 205 200 200 240 289 299 284
355 357 338 327 352 3 3 11 13 313 283 255 223 209 201 200 206 209 209 203 197 200 205 203 205 215 204 191 190 191 189 195 198 200 204 204 203 201 202 202 205 220 250 286
336 4 14 15 9 4 9 7 346 311 295 272 254 238 225 216 216 214 206 192 190 204 209 206 210 212 196 190 190 192 196 201 193 196 204 207 205 203 206 206 207 209 216 224
15 13 6 4 359 356 354 348 333 319 312 300 276 258 244 229 225 224 216 205 203 207 206 205 211 206 193 190 188 191 194 202 201 196 204 207 205 208 209 205 206 212 221 218
16 11 2 356 356 354 352 350 345 339 328 310 307 290 256 234 230 231 225 214 211 217 215 210 206 198 194 192 191 190 190 195 195 201 208 211 212 212 209 209 210 213 222 226
13 13 10 10 6 2 359 355 348 340 337 335 329 310 278 257 246 241 226 208 210 222 225 213 205 197 197 198 191 190 191 195 199 207 210 216 217 213 210 210 213 213 211 209
12 10 9 7 8 8 4 357 353 353 349 347 342 335 323 302 279 256 230 222 223 224 215 202 201 201 200 200 193 192 195 198 202 207 211 213 216 218 216 215 215 215 213 211
6 7 8 5 1 2 2 358 358 355 353 353 350 337 324 320 312 282 250 247 248 233 219 208 204 204 201 199 195 196 199 202 203 206 209 213 217 220 220 219 219 218 216 215
357 359 360 0 359 355 353 356 359 356 356 357 354 348 342 337 333 317 277 262 270 245 223 217 213 209 204 199 196 197 202 205 206 206 209 211 213 218 221 220 220 221 218 215
345 346 348 350 347 342 347 356 357 357 355 352 351 349 343 333 329 326 312 306 302 270 242 228 220 213 206 199 198 200 204 207 208 208 210 212 212 214 218 221 220 219 217 216
337 337 336 337 346 355 353 347 346 348 347 344 344 343 341 339 335 327 316 317 319 301 262 242 228 219 207 202 199 202 205 208 209 210 211 212 213 214 216 217 219 220 219 218
318 322 331 341 345 339 332 335 341 345 346 344 341 340 340 334 327 326 329 333 335 329 306 275 249 231 215 208 205 206 206 209 211 209 210 212 214 216 217 216 217 219 218 218
297 300 298 300 299 303 316 330 336 337 339 339 338 338 339 337 333 337 340 340 343 342 338 327 304 259 233 217 213 213 213 215 217 216 214 215 216 216 218 219 219 218 217 217
291 294 299 306 303 300 307 316 320 322 325 328 328 330 334 337 339 343 345 348 348 347 346 344 341 332 305 261 240 231 224 221 219 218 218 218 218 218 220 219 219 218 216 216
Height
1549 1545 1545 1547 1548 1549 1554 1559 1564 1557 1553 1548 1546 1546 1546 1548 1548 1549 1548 1548 1547 1545 1544 1541 1539 1536 1533 1529 1526 1522 1518 1514 1511 1507 1504 1500 1497 1493 1490 1487 1484 1481 1478 1475
1548 1543 1543 1545 1544 1546 1547 1547 1549 1549 1547 1538 1539 1542 1544 1545 1546 1546 1546 1546 1545 1544 1543 1541 1538 1536 1533 1530 1526 1523 1519 1516 1512 1509 1506 1502 1499 1496 1492 1489 1487 1484 1480 1477
1558 1547 1546 1552 1541 1541 1541 1538 1541 1546 1541 1536 1539 1539 1540 1541 1542 1543 1543 1544 1543 1543 1542 1540 1538 1536 1533 1530 1527 1524 1520 1517 1514 1511 1508 1504 1501 1498 1495 1492 1489 1487 1483 1480
1559 1555 1561 1546 1529 1529 1533 1531 1531 1531 1531 1532 1532 1534 1536 1538 1539 1540 1541 1541 1541 1541 1540 1539 1537 1535 1533 1530 1528 1525 1521 1518 1516 1513 1510 1507 1504 1501 1498 1495 1492 1490 1486 1484
1564 1563 1556 1538 1527 1527 1531 1531 1526 1527 1527 1529 1531 1534 1535 1535 1536 1537 1538 1539 1540 1540 1539 1538 1537 1535 1533 1531 1528 1525 1523 1520 1517 1515 1512 1509 1506 1503 1501 1498 1496 1493 1490 1487
1562 1559 1558 1539 1525 1524 1529 1533 1523 1522 1524 1527 1530 1537 1533 1532 1534 1535 1536 1537 1538 1538 1538 1537 1536 1534 1533 1531 1528 1526 1523 1521 1519 1516 1514 1511 1508 1506 1503 1501 1499 1496 1493 1491
1560 1560 1550 1529 1524 1526 1541 1535 1520 1520 1520 1523 1525 1526 1526 1528 1531 1533 1534 1535 1536 1536 1536 1536 1535 1534 1532 1530 1528 1527 1524 1522 1520 1518 1515 1513 1510 1508 1506 1504 1501 1499 1497 1494
1560 1559 1549 1523 1524 1528 1526 1518 1518 1518 1518 1520 1520 1522 1524 1526 1528 1530 1532 1533 1534 1535 1535 1534 1534 1533 1532 1530 1528 1527 1525 1523 1521 1519 1517 1515 1512 1510 1508 1506 1504 1502 1500 1498
1541 1537 1522 1518 1517 1517 1517 1516 1516 1516 1517 1518 1519 1520 1521 1523 1525 1527 1529 1530 1532 1532 1533 1533 1532 1532 1531 1530 1528 1527 1526 1524 1522 1521 1519 1517 1514 1512 1510 1508 1506 1505 1503 1501
1528 1522 1517 1515 1515 1515 1515 1514 1514 1515 1515 1516 1516 1517 1519 1521 1523 1525 1526 1528 1529 1530 1530 1530 1530 1530 1529 1529 1528 1527 1525 1524 1523 1521 1520 1518 1516 1515 1513 1511 1509 1507 1506 1504
1524 1518 1515 1513 1512 1512 1512 1513 1513 1513 1513 1514 1514 1515 1517 1518 1520 1522 1523 1525 1526 1527 1527 1528 1528 1528 1528 1527 1527 1526 1525 1524 1523 1522 1520 1519 1518 1516 1514 1513 1511 1510 1508 1507
1525 1517 1516 1513 1511 1511 1510 1510 1510 1511 1511 1512 1512 1513 1514 1515 1517 1519 1520 1521 1523 1523 1524 1525 1525 1525 1525 1525 1525 1524 1524 1523 1522 1521 1521 1520 1518 1517 1516 1514 1513 1512 1510 1509
1519 1515 1513 1512 1510 1509 1509 1508 1509 1509 1509 1509 1510 1511 1512 1513 1514 1515 1517 1518 1519 1520 1521 1521 1522 1522 1523 1523 1523 1522 1522 1522 1521 1521 1520 1519 1518 1517 1516 1516 1514 1513 1512 1511
1517 1514 1512 1511 1510 1509 1507 1507 1507 1507 1507 1507 1508 1508 1509 1509 1510 1511 1512 1514 1515 1516 1517 1518 1518 1519 1519 1520 1520 1520 1520 1520 1519 1519 1519 1518 1518 1517 1516 1516 1515 1514 1513 1512
1516 1515 1514 1511 1509 1507 1506 1505 1504 1504 1504 1504 1505 1505 1505 1506 1506 1507 1508 1510 1511 1512 1512 1513 1514 1515 1516 1516 1516 1517 1517 1517 1517 1517 1517 1517 1516 1516 1516 1515 1515 1514 1513 1512
1516 1514 1511 1509 1507 1506 1504 1503 1503 1502 1502 1502 1502 1501 1502 1502 1502 1503 1504 1505 1505 1506 1507 1508 1509 1510 1511 1512 1512 1513 1513 1513 1514 1514 1514 1514 1514 1514 1514 1514 1513 1513 1513 1512
1514 1512 1510 1508 1507 1506 1505 1504 1502 1501 1500 1499 1498 1498 1498 1497 1497 1497 1498 1499 1500 1500 1502 1503 1504 1506 1506 1507 1508 1508 1509 1509 1510 1510 1510 1511 1511 1511 1511 1511 1511 1511 1511 1511
1518 1516 1514 1512 1509 1506 1504 1502 1501 1499 1497 1496 1495 1493 1493 1492 1491 1491 1492 1493 1494 1494 1495 1497 1498 1500 1501 1502 1503 1504 1504 1505 1505 1506 1506 1507 1507 1508 1508 1509 1509 1509 1509 1509
1518 1516 1514 1512 1509 1507 1504 1501 1499 1497 1495 1492 1491 1489 1488 1487 1487 1486 1487 1487 1487 1487 1488 1491 1492 1493 1494 1496 1497 1498 1499 1500 1500 1501 1502 1502 1503 1504 1504 1505 1505 1505 1506 1506
1518 1516 1514 1511 1509 1506 1503 1500 1497 1495 1492 1490 1487 1485 1483 1482 1481 1481 1480 1480 1479 1480 1482 1484 1485 1486 1487 1489 1490 1491 1492 1493 1494 1495 1496 1497 1498 1499 1500 1500 1501 1502 1502 1502
1517 1515 1513 1510 1508 1505 1502 1499 1496 1493 1490 1487 1485 1482 1479 1477 1476 1475 1474 1473 1473 1475 1476 1477 1478 1478 1480 1482 1483 1484 1485 1487 1488 1489 1490 1491 1492 1493 1494 1495 1496 1497 1497 1498
1516 1514 1512 1509 1506 1503 1501 1498 1495 1491 1488 1485 1482 1479 1476 1473 1471 1469 1468 1468 1467 1468 1468 1469 1470 1471 1473 1474 1475 1476 1478 1479 1481 1482 1483 1484 1486 1487 1488 1489 1490 1491 1492 1493
1515 1513 1510 1508 1505 1502 1499 1496 1493 1490 1486 1483 1480 1477 1474 1471 1468 1465 1462 1461 1461 1460 1460 1461 1462 1464 1465 1466 1467 1469 1470 1472 1473 1474 1476 1478 1479 1480 1482 1483 1484 1485 1486 1487
1513 1511 1509 1506 1503 1500 1497 1494 1491 1488 1485 1482 1479 1476 1472 1468 1464 1462 1459 1457 1454 1453 1452 1453 1455 1456 1458 1459 1460 1461 1463 1464 1466 1467 1469 1470 1472 1473 1474 1476 1477 1478 1479 1480
1510 1509 1506 1504 1501 1498 1495 1492 1489 1486 1482 1479 1476 1473 1470 1466 1463 1459 1455 1452 1450 1447 1446 1446 1447 1448 1449 1450 1452 1454 1455 1457 1459 1460 1462 1463 1464 1466 1467 1468 1470 1471 1472 1473
1507 1506 1504 1502 1500 1497 1494 1491 1487 1484 1480 1476 1473 1470 1466 1463 1460 1456 1453 1449 1447 1444 1442 1440 1440 1441 1442 1443 1444 1446 1448 1450 1451 1453 1454 1456 1457 1458 1459 1461 1462 1463 1465 1466
1504 1502 1501 1499 1497 1495 1492 1489 1486 1483 1479 1475 1471 1468 1464 1461 1457 1453 1450 1447 1444 1441 1438 1437 1436 1435 1435 1436 1438 1439 1440 1442 1443 1445 1446 1448 1449 1450 1452 1453 1454 1456 1457 1458